Home > Weather > Lomé > Past weeks

Flag for Togo Weather for the Past 2 Weeks in Lomé, Togo

Now
84 °F

Passing clouds.


Feels Like: 96 °F
Forecast: N/A
Wind: 10 mph from Southwest

Location: Lome Airport

Current Time: May 1, 2016 at 9:42:55 PM

Latest Report: May 1, 2016 at 9:00 PM


Visibility: N/A

Pressure: 29.83 "Hg

Humidity: 84%

Dew Point: 79 °F

Location of LoméLocation

Historic Weather in Lomé — Graph

°F

Lomé Temperature Yesterday

Maximum temperature yesterday: 90 °F (at 11:00 AM)
Minimum temperature yesterday: 81 °F (at 3:30 AM)
Average temperature yesterday: 85 °F

High & Low Weather Summary for the Past Weeks

 TemperatureHumidityPressure
High93 °F (Apr 24, 11:00 AM)100% (Apr 19, 6:00 AM)29.98 "Hg (Apr 19, 6:00 AM)
Low75 °F (Apr 28, 10:00 AM)59% (Apr 23, 1:00 PM)29.71 "Hg (Apr 24, 4:30 PM)
Average85 °F81%29.83 "Hg
* Reported Apr 16 8:00 PM — May 1 8:30 PM, Lomé, Weather by CustomWeather, © 2016

Note: Actual official high and low records may vary slightly from our data, if they occured in-between our weather recording intervals... More about our weather records

Advertising

Lomé Weather History for the Previous 24 Hours

Scroll right to see more
 ConditionsComfort  
Time TempWeatherWind HumidityBarometerVisibility
8:30 PM
Sun, May 1
86 °FPassing clouds.14 mph79%29.80 "HgN/A
8:00 PM86 °FPassing clouds.12 mph79%29.80 "HgN/A
7:30 PM86 °FPassing clouds.12 mph79%29.80 "HgN/A
7:00 PM86 °FPassing clouds.14 mph84%29.80 "HgN/A
6:30 PM86 °FPassing clouds.14 mph79%29.77 "HgN/A
6:00 PM86 °FPassing clouds.15 mph79%29.77 "HgN/A
5:30 PM86 °FPassing clouds.15 mph84%29.77 "HgN/A
5:00 PM88 °FPassing clouds.15 mph75%29.77 "HgN/A
4:30 PM88 °FPassing clouds.17 mph79%29.77 "HgN/A
4:00 PM88 °FPassing clouds.17 mph79%29.74 "HgN/A
3:30 PM90 °FPassing clouds.15 mph75%29.77 "HgN/A
3:00 PM90 °FPassing clouds.16 mph75%29.77 "HgN/A
2:30 PM90 °FPassing clouds.18 mph67%29.77 "HgN/A
2:00 PM90 °FPassing clouds.15 mph75%29.77 "HgN/A
1:30 PM90 °FPassing clouds.14 mph71%29.80 "HgN/A
1:00 PM90 °FPassing clouds.16 mph71%29.80 "HgN/A
12:30 PM90 °FPassing clouds.17 mph75%29.80 "HgN/A
12:00 PM90 °FPassing clouds.15 mph75%29.80 "HgN/A
11:30 AM90 °FScattered clouds.15 mph75%29.83 "HgN/A
10:30 AM90 °FScattered clouds.13 mph75%29.83 "HgN/A
10:00 AM90 °FScattered clouds.14 mph71%29.83 "HgN/A
9:30 AM88 °FScattered clouds.13 mph79%29.83 "HgN/A
9:00 AM88 °FScattered clouds.13 mph79%29.83 "HgN/A
8:30 AM88 °FScattered clouds.9 mph79%29.86 "HgN/A
8:00 AM86 °FPassing clouds.8 mph84%29.83 "HgN/A
7:00 AM84 °FPassing clouds.5 mph89%29.83 "HgN/A
6:30 AM82 °FPassing clouds.6 mph94%29.80 "HgN/A
6:00 AM82 °FPassing clouds.6 mph94%29.80 "HgN/A
5:30 AM82 °FPassing clouds.3 mph94%29.80 "HgN/A
4:30 AM82 °FPassing clouds.7 mph94%29.77 "HgN/A
4:00 AM82 °FPassing clouds.3 mph94%29.77 "HgN/A
3:30 AM84 °FPassing clouds.6 mph89%29.77 "HgN/A
2:30 AM84 °FPassing clouds.6 mph89%29.77 "HgN/A
2:00 AM84 °FPassing clouds.6 mph89%29.77 "HgN/A
1:30 AM84 °FPassing clouds.8 mph89%29.80 "HgN/A
1:00 AM84 °FPassing clouds.8 mph89%29.80 "HgN/A
12:30 AM84 °FPassing clouds.8 mph89%29.83 "HgN/A
12:00 AM84 °FPassing clouds.9 mph89%29.83 "HgN/A
11:30 PM
Sat, Apr 30
84 °FPassing clouds.8 mph89%29.83 "HgN/A
11:00 PM84 °FPassing clouds.9 mph89%29.83 "HgN/A
10:30 PM84 °FPassing clouds.9 mph89%29.83 "HgN/A
10:00 PM84 °FPassing clouds.9 mph89%29.83 "HgN/A
9:00 PM84 °FPassing clouds.8 mph89%29.83 "HgN/A
Weather by CustomWeather, © 2016

See weather overviewHow to use our weather pages